Weather History for Michigan City, IN

Change the Weather History Date:

Thursday, February 21, 2013

  Actual Average (KVPZ) Record (KVPZ)
Temperature  
Mean Temperature 26 °F 29 °F  
Max Temperature 28 °F 37 °F 45 °F (1998)
Min Temperature 23 °F 22 °F 4 °F (2008)
Degree Days  
Heating Degree Days 40 36  
Month to date heating degree days 809  
Since 1 July heating degree days 4494  
Cooling Degree Days 0 0  
Month to date cooling degree days 0  
Year to date cooling degree days 0  
Moisture  
Dew Point 19 °F    
Average Humidity 73    
Maximum Humidity 86    
Minimum Humidity 69    
Precipitation  
Precipitation 0.00 in 0.05 in 0.33 in (2010)
Month to date precipitation 1.05  
Year to date precipitation 2.80  
Sea Level Pressure  
Sea Level Pressure 30.25 in    
Wind  
Wind Speed 6 mph (East)    
Max Wind Speed 14 mph    
Max Gust Speed 29 mph    
Visibility 10 miles    
Events Snow    
T = Trace of Precipitation, MM = Missing Value Source: NWS Daily Summary

Daily Weather History Graph

Daily Weather History Graph

Search for Another Location

Airport:

Trip Planner

Search our weather history database for the weather conditions in past years. The results will help you decide how hot, cold, wet, or windy it might be!

Date:

Astronomy

Feb. 21, 2013 Rise Set
Actual Time 6:33 AM CST 5:28 PM CST
Civil Twilight 6:05 AM CST 5:56 PM CST
Nautical Twilight 5:33 AM CST 6:28 PM CST
Astronomical Twilight 5:01 AM CST 7:01 PM CST
Moon 1:40 PM CST (2/21) 3:40 AM CST (2/21)
Length of Visible Light 11h 50m
Length of Day
10h 54m
Waxing Gibbous, 84% of the Moon is Illuminated
Feb 21
Waxing Gibbous
Feb 25
Full
Mar 4
Last Quarter
Mar 11
New
Mar 19
First Quarter

Hourly Weather History & Observations

Time (CST) Temp. Windchill Dew Point Humidity Pressure Visibility Wind Dir Wind Speed Gust Speed Precip Events Conditions
12:15 AM 26.6 °F 20.0 °F 19.4 °F 74% 30.32 in 10.0 mi North 5.8 mph - N/A   Overcast
12:35 AM 26.6 °F 19.1 °F 17.6 °F 69% 30.32 in 10.0 mi North 6.9 mph - N/A   Overcast
12:55 AM 26.6 °F 21.2 °F 19.4 °F 74% 30.32 in 10.0 mi NNW 4.6 mph - N/A   Overcast
1:15 AM 28.4 °F 21.2 °F 19.4 °F 69% 30.31 in 10.0 mi NNE 6.9 mph - N/A   Overcast
1:35 AM 28.4 °F 23.3 °F 19.4 °F 69% 30.32 in 10.0 mi NNW 4.6 mph - N/A   Overcast
1:55 AM 28.4 °F 23.3 °F 19.4 °F 69% 30.32 in 10.0 mi North 4.6 mph - N/A   Overcast
2:15 AM 28.4 °F 21.2 °F 19.4 °F 69% 30.31 in 10.0 mi North 6.9 mph - N/A   Overcast
2:35 AM 28.4 °F 22.2 °F 19.4 °F 69% 30.32 in 10.0 mi North 5.8 mph 9.2 mph N/A   Overcast
2:55 AM 28.4 °F 22.2 °F 19.4 °F 69% 30.31 in 10.0 mi North 5.8 mph - N/A   Overcast
3:15 AM 28.4 °F 22.2 °F 21.2 °F 74% 30.30 in 10.0 mi North 5.8 mph - N/A   Overcast
3:35 AM 28.4 °F 23.3 °F 21.2 °F 74% 30.30 in 10.0 mi NE 4.6 mph - N/A   Overcast
3:55 AM 28.4 °F 20.4 °F 21.2 °F 74% 30.31 in 10.0 mi North 8.1 mph - N/A   Overcast
4:15 AM 28.4 °F 23.3 °F 21.2 °F 74% 30.31 in 10.0 mi NE 4.6 mph - N/A   Overcast
4:35 AM 26.6 °F 21.2 °F 19.4 °F 74% 30.33 in 10.0 mi ENE 4.6 mph - N/A   Overcast
5:15 AM 26.6 °F - 19.4 °F 74% 30.33 in 10.0 mi Calm Calm - N/A   Overcast
5:35 AM 24.8 °F 19.1 °F 19.4 °F 80% 30.34 in 10.0 mi ENE 4.6 mph - N/A   Overcast
5:55 AM 24.8 °F 19.1 °F 19.4 °F 80% 30.33 in 10.0 mi East 4.6 mph - N/A   Overcast
6:15 AM 24.8 °F 19.1 °F 19.4 °F 80% 30.33 in 10.0 mi East 4.6 mph - N/A   Overcast
6:35 AM 24.8 °F 19.1 °F 19.4 °F 80% 30.33 in 10.0 mi East 4.6 mph - N/A   Overcast
6:55 AM 23.0 °F 14.7 °F 19.4 °F 86% 30.33 in 10.0 mi ENE 6.9 mph - N/A   Overcast
7:15 AM 23.0 °F 17.0 °F 19.4 °F 86% 30.33 in 10.0 mi ENE 4.6 mph - N/A   Overcast
7:35 AM 24.8 °F - 19.4 °F 80% 30.35 in 10.0 mi Calm Calm - N/A   Overcast
7:55 AM 24.8 °F - 19.4 °F 80% 30.36 in 10.0 mi Calm Calm - N/A   Overcast
8:15 AM 24.8 °F - 19.4 °F 80% 30.36 in 10.0 mi Calm Calm - N/A   Overcast
8:35 AM 24.8 °F 19.1 °F 19.4 °F 80% 30.35 in 10.0 mi ENE 4.6 mph - N/A   Overcast
8:55 AM 26.6 °F 20.0 °F 19.4 °F 74% 30.34 in 10.0 mi ENE 5.8 mph - N/A   Overcast
9:15 AM 26.6 °F 22.6 °F 19.4 °F 74% 30.33 in 10.0 mi East 3.5 mph - N/A   Overcast
9:35 AM 26.6 °F 20.0 °F 19.4 °F 74% 30.33 in 10.0 mi ENE 5.8 mph - N/A   Overcast
10:15 AM 26.6 °F 19.1 °F 19.4 °F 74% 30.36 in 10.0 mi ENE 6.9 mph - N/A   Overcast
10:35 AM 26.6 °F 21.2 °F 19.4 °F 74% 30.35 in 10.0 mi ENE 4.6 mph - N/A   Overcast
10:55 AM 26.6 °F 20.0 °F 19.4 °F 74% 30.35 in 10.0 mi ENE 5.8 mph - N/A   Overcast
11:15 AM 26.6 °F 20.0 °F 19.4 °F 74% 30.33 in 10.0 mi ENE 5.8 mph - N/A   Overcast
11:35 AM 26.6 °F 20.0 °F 19.4 °F 74% 30.33 in 10.0 mi East 5.8 mph - N/A   Overcast
11:55 AM 26.6 °F 20.0 °F 19.4 °F 74% 30.31 in 10.0 mi ENE 5.8 mph - N/A   Overcast
12:15 PM 26.6 °F 17.5 °F 19.4 °F 74% 30.29 in 10.0 mi NE 9.2 mph - N/A   Overcast
12:35 PM 28.4 °F 22.2 °F 19.4 °F 69% 30.29 in 10.0 mi East 5.8 mph - N/A   Overcast
12:55 PM 26.6 °F 19.1 °F 19.4 °F 74% 30.26 in 10.0 mi ENE 6.9 mph - N/A   Mostly Cloudy
1:15 PM 26.6 °F 18.2 °F 17.6 °F 69% 30.24 in 10.0 mi ESE 8.1 mph - N/A   Overcast
1:35 PM 26.6 °F 20.0 °F 19.4 °F 74% 30.23 in 10.0 mi East 5.8 mph - N/A   Overcast
1:55 PM 26.6 °F 17.5 °F 17.6 °F 69% 30.21 in 10.0 mi East 9.2 mph - N/A   Overcast
2:15 PM 26.6 °F 17.5 °F 17.6 °F 69% 30.22 in 10.0 mi ESE 9.2 mph - N/A   Overcast
2:35 PM 26.6 °F 20.0 °F 17.6 °F 69% 30.24 in 10.0 mi East 5.8 mph - N/A   Overcast
2:55 PM 26.6 °F 19.1 °F 19.4 °F 74% 30.24 in 10.0 mi ESE 6.9 mph - N/A   Overcast
3:15 PM 28.4 °F 23.3 °F 19.4 °F 69% 30.24 in 10.0 mi ENE 4.6 mph - N/A   Overcast
3:35 PM 28.4 °F 23.3 °F 19.4 °F 69% 30.24 in 10.0 mi ESE 4.6 mph - N/A   Overcast
3:55 PM 28.4 °F 22.2 °F 19.4 °F 69% 30.24 in 10.0 mi SE 5.8 mph - N/A   Overcast
4:15 PM 28.4 °F 22.2 °F 19.4 °F 69% 30.24 in 10.0 mi ESE 5.8 mph - N/A   Overcast
4:35 PM 28.4 °F 21.2 °F 19.4 °F 69% 30.23 in 10.0 mi ESE 6.9 mph - N/A   Overcast
4:55 PM 28.4 °F 19.7 °F 19.4 °F 69% 30.22 in 10.0 mi East 9.2 mph - N/A   Overcast
5:15 PM 28.4 °F 23.3 °F 19.4 °F 69% 30.21 in 10.0 mi East 4.6 mph - N/A   Overcast
5:35 PM 26.6 °F 18.2 °F 19.4 °F 74% 30.21 in 10.0 mi East 8.1 mph - N/A   Overcast
5:55 PM 28.4 °F 20.4 °F 19.4 °F 69% 30.20 in 10.0 mi East 8.1 mph - N/A   Overcast
6:15 PM 28.4 °F 21.2 °F 19.4 °F 69% 30.19 in 10.0 mi East 6.9 mph - N/A   Overcast
6:35 PM 28.4 °F 22.2 °F 19.4 °F 69% 30.18 in 10.0 mi East 5.8 mph - N/A   Scattered Clouds
6:55 PM 28.4 °F 22.2 °F 19.4 °F 69% 30.17 in 10.0 mi ESE 5.8 mph - N/A   Mostly Cloudy
7:15 PM 28.4 °F 19.7 °F 19.4 °F 69% 30.16 in 10.0 mi East 9.2 mph - N/A   Overcast
7:35 PM 28.4 °F 21.2 °F 19.4 °F 69% 30.16 in 10.0 mi ESE 6.9 mph 19.6 mph N/A   Overcast
7:55 PM 28.4 °F 22.2 °F 19.4 °F 69% 30.15 in 10.0 mi ESE 5.8 mph 17.3 mph N/A   Overcast
8:15 PM 26.6 °F 18.2 °F 19.4 °F 74% 30.14 in 10.0 mi ESE 8.1 mph - N/A   Overcast
8:35 PM 26.6 °F 16.8 °F 19.4 °F 74% 30.14 in 10.0 mi ESE 10.4 mph 16.1 mph N/A   Overcast
8:55 PM 26.6 °F 19.1 °F 19.4 °F 74% 30.13 in 10.0 mi ESE 6.9 mph 16.1 mph N/A   Overcast
9:15 PM 26.6 °F 15.7 °F 19.4 °F 74% 30.11 in 10.0 mi ESE 12.7 mph 16.1 mph N/A   Overcast
9:35 PM 26.6 °F 16.8 °F 19.4 °F 74% 30.08 in 10.0 mi East 10.4 mph 26.5 mph N/A   Overcast
9:55 PM 26.6 °F 15.7 °F 19.4 °F 74% 30.06 in 10.0 mi East 12.7 mph 19.6 mph N/A   Overcast
10:15 PM 26.6 °F 15.7 °F 19.4 °F 74% 30.06 in 10.0 mi ESE 12.7 mph 24.2 mph N/A   Overcast
10:35 PM 26.6 °F 15.2 °F 19.4 °F 74% 30.02 in 5.0 mi ESE 13.8 mph 23.0 mph N/A Snow Light Snow
10:55 PM 26.6 °F 16.2 °F 17.6 °F 69% 30.04 in 10.0 mi ESE 11.5 mph 28.8 mph N/A   Overcast
11:15 PM 26.6 °F 18.2 °F 17.6 °F 69% 30.04 in 10.0 mi East 8.1 mph 19.6 mph N/A   Overcast
11:35 PM 24.8 °F 12.9 °F 17.6 °F 74% 30.03 in 4.0 mi East 13.8 mph 20.7 mph N/A Snow Light Snow
11:55 PM 23.0 °F 12.4 °F 19.4 °F 86% 30.02 in 1.5 mi East 10.4 mph 19.6 mph N/A Snow Light Snow